Pinedale, WY

3:28 AM MST on January 23, 2017 (GMT -0700)
Wenz

Weather History for KPNA - June, 2012

Change the Weather History Date:

Thursday, June 14, 2012

  Actual Average (KBPI) Record (KBPI)
Temperature  
Mean Temperature 52 °F -  
Max Temperature 73 °F 67 °F 81 °F (1996)
Min Temperature 32 °F 34 °F 23 °F (1976)
Degree Days  
Heating Degree Days 12    
Growing Degree Days 2 (Base 50)    
Moisture  
Dew Point 22 °F    
Average Humidity 36    
Maximum Humidity 80    
Minimum Humidity 10    
Precipitation  
Precipitation 0.00 in - - ()
Sea Level Pressure  
Sea Level Pressure 30.08 in    
Wind  
Wind Speed 7 mph (NW)    
Max Wind Speed 17 mph    
Max Gust Speed 25 mph    
Visibility 10 miles    
Events      
Averages and records for this station are not official NWS values.
T = Trace of Precipitation, MM = Missing Value Source: NWS Daily Summary

Daily Weather History Graph

Daily Weather History Graph

Search for Another Location

Airport or City:

Trip Planner

Search our weather history database for the weather conditions in past years. The results will help you decide how hot, cold, wet, or windy it might be!

Date:

Astronomy

Jun. 14, 2012 Rise Set
Actual Time 5:40 AM MDT 8:59 PM MDT
Civil Twilight 5:05 AM MDT 9:34 PM MDT
Nautical Twilight 4:19 AM MDT 10:19 PM MDT
Astronomical Twilight 3:23 AM MDT 11:16 PM MDT
Moon 2:29 AM MDT (6/14) 4:42 PM MDT (6/14)
Length of Visible Light 16h 29m
Length of Day
15h 19m
Waning Crescent, 20% of the Moon is Illuminated
Jun 14
Waning Crescent
Jun 19
New
Jun 26
First Quarter
Jul 3
Full
Jul 10
Last Quarter

Hourly Weather History & Observations

Time (MDT) Temp. Windchill Dew Point Humidity Pressure Visibility Wind Dir Wind Speed Gust Speed Precip Events Conditions
12:15 AM 44.6 °F 39.7 °F 21.2 °F 39% 30.06 in 10.0 mi NE 9.2 mph - N/A   Clear
12:35 AM 46.4 °F 45.2 °F 23.0 °F 40% 30.06 in 10.0 mi NW 3.5 mph - N/A   Clear
12:55 AM 42.8 °F 39.3 °F 21.2 °F 42% 30.06 in 10.0 mi WNW 5.8 mph - N/A   Clear
1:15 AM 41.0 °F 34.7 °F 23.0 °F 49% 30.06 in 10.0 mi WNW 10.4 mph - N/A   Clear
1:35 AM 41.0 °F 36.4 °F 23.0 °F 49% 30.06 in 10.0 mi NW 6.9 mph - N/A   Clear
1:55 AM 37.4 °F 32.1 °F 23.0 °F 56% 30.06 in 10.0 mi NW 6.9 mph - N/A   Clear
2:15 AM 37.4 °F 33.8 °F 24.8 °F 60% 30.05 in 10.0 mi NW 4.6 mph - N/A   Clear
2:35 AM 37.4 °F - 23.0 °F 56% 30.05 in 10.0 mi Calm Calm - N/A   Clear
2:55 AM 35.6 °F 28.6 °F 23.0 °F 60% 30.05 in 10.0 mi WNW 9.2 mph - N/A   Clear
3:15 AM 33.8 °F 28.6 °F 23.0 °F 65% 30.05 in 10.0 mi West 5.8 mph - N/A   Clear
3:35 AM 35.6 °F 29.9 °F 23.0 °F 60% 30.06 in 10.0 mi West 6.9 mph - N/A   Clear
3:55 AM 33.8 °F 26.4 °F 21.2 °F 60% 30.06 in 10.0 mi West 9.2 mph - N/A   Clear
4:15 AM 33.8 °F 25.3 °F 23.0 °F 65% 30.06 in 10.0 mi WNW 11.5 mph - N/A   Clear
4:35 AM 33.8 °F 28.6 °F 24.8 °F 70% 30.07 in 10.0 mi NW 5.8 mph - N/A   Clear
4:55 AM 33.8 °F 30.8 °F 23.0 °F 65% 30.08 in 10.0 mi North 3.5 mph - N/A   Clear
5:15 AM 32.0 °F 27.5 °F 26.6 °F 80% 30.08 in 10.0 mi NW 4.6 mph - N/A   Clear
5:35 AM 32.0 °F 26.4 °F 24.8 °F 75% 30.09 in 10.0 mi WNW 5.8 mph - N/A   Clear
5:55 AM 32.0 °F 26.4 °F 24.8 °F 75% 30.09 in 10.0 mi WNW 5.8 mph - N/A   Clear
6:15 AM 32.0 °F 24.8 °F 24.8 °F 75% 30.09 in 10.0 mi NW 8.1 mph - N/A   Clear
6:35 AM 33.8 °F 29.6 °F 24.8 °F 70% 30.10 in 10.0 mi West 4.6 mph - N/A   Clear
6:55 AM 35.6 °F 29.2 °F 26.6 °F 70% 30.11 in 10.0 mi NNW 8.1 mph - N/A   Clear
7:15 AM 39.2 °F 35.0 °F 26.6 °F 61% 30.11 in 10.0 mi NW 5.8 mph - N/A   Clear
7:35 AM 42.8 °F 38.6 °F 26.6 °F 53% 30.11 in 10.0 mi NW 6.9 mph - N/A   Clear
7:55 AM 44.6 °F 40.2 °F 28.4 °F 53% 30.11 in 10.0 mi NW 8.1 mph - N/A   Clear
8:15 AM 48.2 °F - 26.6 °F 43% 30.11 in 10.0 mi NW 9.2 mph - N/A   Clear
8:35 AM 51.8 °F - 24.8 °F 35% 30.11 in 10.0 mi NW 10.4 mph - N/A   Clear
8:55 AM 51.8 °F - 26.6 °F 38% 30.11 in 10.0 mi NW 5.8 mph - N/A   Clear
9:15 AM 55.4 °F - 26.6 °F 33% 30.11 in 10.0 mi WNW 5.8 mph - N/A   Clear
9:55 AM 57.2 °F - 26.6 °F 31% 30.10 in 10.0 mi North 8.1 mph - N/A   Clear
10:15 AM 59.0 °F - 23.0 °F 25% 30.09 in 10.0 mi North 8.1 mph - N/A   Clear
10:35 AM 60.8 °F - 23.0 °F 23% 30.09 in 10.0 mi NNW 9.2 mph - N/A   Clear
10:55 AM 62.6 °F - 21.2 °F 20% 30.09 in 10.0 mi WNW 5.8 mph - N/A   Clear
11:15 AM 62.6 °F - 21.2 °F 20% 30.09 in 10.0 mi NNW 5.8 mph - N/A   Clear
11:35 AM 62.6 °F - 19.4 °F 19% 30.09 in 10.0 mi Calm Calm - N/A   Clear
11:55 AM 62.6 °F - 19.4 °F 19% 30.09 in 10.0 mi North 6.9 mph - N/A   Clear
12:15 PM 66.2 °F - 21.2 °F 18% 30.09 in 10.0 mi NNW 4.6 mph - N/A   Clear
12:35 PM 64.4 °F - 19.4 °F 18% 30.09 in 10.0 mi Calm Calm - N/A   Clear
12:55 PM 68.0 °F - 21.2 °F 17% 30.08 in 10.0 mi East 8.1 mph - N/A   Clear
1:15 PM 68.0 °F - 21.2 °F 17% 30.09 in 10.0 mi ENE 5.8 mph - N/A   Clear
1:35 PM 69.8 °F - 21.2 °F 16% 30.08 in 10.0 mi SE 4.6 mph - N/A   Clear
1:55 PM 69.8 °F - 17.6 °F 14% 30.07 in 10.0 mi North 3.5 mph - N/A   Clear
2:15 PM 71.6 °F - 14.0 °F 11% 30.07 in 10.0 mi West 3.5 mph - N/A   Clear
2:35 PM 71.6 °F - 14.0 °F 11% 30.07 in 10.0 mi SW 6.9 mph - N/A   Clear
2:55 PM 73.4 °F - 14.0 °F 10% 30.06 in 10.0 mi WNW 11.5 mph 21.9 mph N/A   Clear
3:15 PM 71.6 °F - 14.0 °F 11% 30.05 in 10.0 mi WNW 10.4 mph 18.4 mph N/A   Clear
3:35 PM 73.4 °F - 15.8 °F 11% 30.05 in 10.0 mi NW 5.8 mph 17.3 mph N/A   Clear
3:55 PM 73.4 °F - 14.0 °F 10% 30.05 in 10.0 mi North - - N/A   Clear
4:15 PM 73.4 °F - 19.4 °F 13% 30.05 in 10.0 mi NW 11.5 mph 17.3 mph N/A   Clear
4:35 PM 73.4 °F - 17.6 °F 12% 30.05 in 10.0 mi WNW 10.4 mph 19.6 mph N/A   Clear
4:55 PM 73.4 °F - 15.8 °F 11% 30.05 in 10.0 mi WNW 11.5 mph 21.9 mph N/A   Clear
5:15 PM 73.4 °F - 14.0 °F 10% 30.04 in 10.0 mi West 15.0 mph 25.3 mph N/A   Clear
5:35 PM 73.4 °F - 15.8 °F 11% 30.05 in 10.0 mi WNW 11.5 mph 19.6 mph N/A   Clear
5:55 PM 73.4 °F - 17.6 °F 12% 30.05 in 10.0 mi WNW 12.7 mph 21.9 mph N/A   Clear
6:15 PM 71.6 °F - 19.4 °F 14% 30.05 in 10.0 mi WNW 13.8 mph 19.6 mph N/A   Clear
6:35 PM 71.6 °F - 19.4 °F 14% 30.05 in 10.0 mi WNW 11.5 mph 15.0 mph N/A   Clear
6:55 PM 71.6 °F - 17.6 °F 13% 30.05 in 10.0 mi WNW 17.3 mph - N/A   Clear
7:35 PM 69.8 °F - 21.2 °F 16% 30.06 in 10.0 mi NW 16.1 mph - N/A   Clear
7:55 PM 68.0 °F - 23.0 °F 18% 30.06 in 10.0 mi NW 12.7 mph - N/A   Clear
8:15 PM 66.2 °F - 21.2 °F 18% 30.07 in 10.0 mi NW 12.7 mph - N/A   Clear
8:35 PM 64.4 °F - 19.4 °F 18% 30.07 in 10.0 mi NW 10.4 mph - N/A   Clear
8:55 PM 60.8 °F - 24.8 °F 25% 30.08 in 10.0 mi NW 10.4 mph - N/A   Clear
9:15 PM 57.2 °F - 24.8 °F 29% 30.08 in 10.0 mi WNW 8.1 mph - N/A   Clear
9:35 PM 53.6 °F - 26.6 °F 35% 30.09 in 10.0 mi WNW 9.2 mph - N/A   Clear
9:55 PM 51.8 °F - 26.6 °F 38% 30.09 in 10.0 mi WNW 9.2 mph - N/A   Clear
10:15 PM 50.0 °F - 26.6 °F 40% 30.09 in 10.0 mi West 9.2 mph - N/A   Clear
10:35 PM 48.2 °F - 26.6 °F 43% 30.09 in 10.0 mi WNW 8.1 mph - N/A   Clear
10:55 PM 48.2 °F - 30.2 °F 50% 30.10 in 10.0 mi NNW 3.5 mph - N/A   Clear
11:15 PM 50.0 °F - 28.4 °F 43% 30.10 in 10.0 mi WNW 4.6 mph - N/A   Clear
11:35 PM 46.4 °F 42.4 °F 28.4 °F 50% 30.10 in 10.0 mi WSW 8.1 mph - N/A   Clear
11:55 PM 44.6 °F 41.4 °F 28.4 °F 53% 30.10 in 10.0 mi West 5.8 mph - N/A   Clear